Home > Time Zones > World Clock > Weather > U.S.A. > Bend > Past weeks

Flag for U.S.A. Weather past 2 weeks in Bend, Oregon, U.S.A.

Now
36 °F

Clear.


Feels Like: 36 °F
Forecast: 37 / 54 °F
Wind: No wind

Location: Roberts Field Airport

Current Time: Sep 4, 2015 at 1:59:02 AM

Latest Report: Sep 4, 2015 at 12:56 AM


Visibility: 10 mi

Pressure: 29.96 "Hg (26.12 "Hg at 1103m altitude)

Humidity: 75%

Dew point: 29 °F

Location of BendLocation

Historic Weather in Bend — Graph

°F

Bend temperature yesterday

Maximum temperature yesterday: 64 °F (at 2:56 PM)
Minimum temperature yesterday: 38 °F (at 6:56 AM)
Average temperature yesterday: 52 °F

Past Weeks' High & Low Weather Summary

 TemperatureHumidityPressure
High91 °F (Aug 26, 3:56 PM)93% (Aug 31, 5:56 AM)30.13 "Hg (Aug 31, 5:56 AM)
Low36 °F (Sep 4, 12:56 AM)10% (Aug 21, 7:56 PM)29.59 "Hg (Aug 29, 3:56 AM)
Average64 °F45%29.93 "Hg
* Reported Aug 20 12:56 AM — Sep 4 12:56 AM, Bend, Weather by CustomWeather, © 2015

Note: Actual official high and low records may vary slightly from our data, if they occured in-between our weather recording intervals... More about our weather records

Advertising

Bend weather history for previous 24 hours

 ConditionsComfort  
Time TempWeatherWind HumidityBarometerVisibility
12:56 AM
Fri, Sep 4
36 °FClear.No wind75%29.96 "Hg10 mi
11:56 PM
Thu, Sep 3
39 °FClear.3 mph73%29.95 "Hg10 mi
10:56 PM43 °FPassing clouds.No wind65%29.95 "Hg10 mi
9:56 PM49 °FPassing clouds.3 mph55%29.94 "Hg10 mi
8:56 PM51 °FClear.7 mph52%29.94 "Hg10 mi
7:56 PM54 °FSunny.10 mph45%29.93 "Hg10 mi
6:56 PM57 °FSunny.13 mph37%29.94 "Hg10 mi
5:56 PM61 °FSunny.14 mph34%29.93 "Hg10 mi
4:56 PM63 °FPassing clouds.17 mph33%29.92 "Hg10 mi
3:56 PM62 °FPartly sunny.10 mph27%29.93 "Hg10 mi
2:56 PM64 °FScattered clouds.9 mph27%29.93 "Hg10 mi
1:56 PM63 °FPartly sunny.9 mph30%29.95 "Hg10 mi
12:56 PM61 °FPassing clouds.6 mph31%29.96 "Hg10 mi
11:56 AM59 °FPartly sunny.6 mph36%29.98 "Hg10 mi
10:56 AM55 °FPartly sunny.No wind44%30.00 "Hg10 mi
9:56 AM55 °FScattered clouds.8 mph47%30.00 "Hg10 mi
8:56 AM52 °FSunny.6 mph55%30.00 "Hg10 mi
7:56 AM49 °FPartly sunny.7 mph66%30.00 "Hg10 mi
6:56 AM38 °FClear.3 mph86%30.01 "Hg10 mi
5:56 AM42 °FPassing clouds.3 mph79%29.98 "Hg10 mi
4:56 AM45 °FMostly cloudy.3 mph74%29.97 "Hg10 mi
3:56 AM45 °FMostly cloudy.6 mph74%29.96 "Hg10 mi
2:56 AM43 °FMostly cloudy.3 mph79%29.96 "Hg10 mi
1:56 AM43 °FPassing clouds.5 mph79%29.96 "Hg10 mi
Weather by CustomWeather, © 2015

See weather overviewHow to use our weather pages